sat.trackr.live / text

‹ back to catalog

STARLINK-30276

NORAD 57652 · 2023-122W

PAYLOAD ACTIVE UNKNOWN

§ Identity

Operator
Country
US
Launch date
2023-08-17
Launch site
AFETR
Launch vehicle
Mass (kg)
RCS (m²)

Purposes: comms

External: N2YO · Heavens-Above · Gunter

§ Orbital elements

Epoch: 2026-09-20T04:43:50.211552Z

Period
94.27 min
Inclination
43.0046°
Eccentricity
0.0001181
Mean motion
15.27559852 rev/d
Perigee alt
482.3 km
Apogee alt
483.9 km
Semi-major
6,861.2 km
B*
-5.3042e-5
RAAN
74.0849°
Arg perigee
264.9535°
Mean anomaly
95.1182°
Rev number
17,195

§ Raw data

STARLINK-302761 57652U 23122W   26263.19710893 -.00001720  00000+0 -53042-4 0  99912 57652  43.0046  74.0849 0001181 264.9535  95.1182 15.27559852171959

JSON: /api/v1/satellites/57652 · /tle

For live sub-satellite position, see the globe view (requires WebGL).

§ Visibility from observer

Set your observer location to see the next 7 days of passes ≥ 10°. The values pass through the URL so the page stays shareable.

No JS? Fill the form by hand. The geolocation button needs JavaScript.